Location: Raitis
(47.2167°N, 11.3833°E)
Time: 04:27:50
(UTC+00:00)

Cosmos 1943 Rocket - Pass Details

Date: 03 March 2021
Orbit: 811 x 844 km, 71.0° (Epoch: 22 April)

Event Time Altitude Azimuth Distance (km) Brightness Sun altitude
Rises 19:00:00 0° 339° (NNW) 3,414 5.8 -20.6°
Reaches altitude 10° 19:04:37 10° 13° (NNE) 2,475 4.6 -21.3°
Maximum altitude 19:06:19 11° 31° (NNE) 2,384 4.4 -21.6°
Enters shadow 19:06:56 11° 37° (NE) 2,395 4.3 -21.7°
